CST,Max TemperatureF,Mean TemperatureF,Min TemperatureF,Max Dew PointF,MeanDew PointF,Min DewpointF,Max Humidity, Mean Humidity, Min Humidity, Max Sea Level PressureIn, Mean Sea Level PressureIn, Min Sea Level PressureIn, Max VisibilityMiles, Mean VisibilityMiles, Min VisibilityMiles, Max Wind SpeedMPH, Mean Wind SpeedMPH, Max Gust SpeedMPH,PrecipitationIn, CloudCover, Events, WindDirDegrees
2010-11-1,55,43,31,36,32,28,92,68,43,30.43,30.39,30.33,10,10,9,14,5,16,0.00,0,,91
2010-11-2,55,43,30,32,30,27,92,62,32,30.46,30.38,30.25,10,10,5,17,4,21,0.00,0,,91
2010-11-3,63,49,34,38,32,28,82,59,35,30.22,30.04,29.92,10,10,9,23,10,29,0.00,1,,279
2010-11-4,52,44,35,36,33,26,79,65,50,30.04,29.96,29.89,10,10,10,24,13,32,T,3,,327
2010-11-5,46,37,27,25,19,13,69,48,27,30.22,30.12,30.04,10,10,10,22,9,29,0.00,0,,325
2010-11-6,51,37,23,24,20,18,81,54,27,30.38,30.30,30.24,10,10,10,14,6,20,0.00,0,,186
2010-11-7,66,53,39,34,28,21,70,50,30,30.26,30.12,30.01,10,10,10,17,7,23,0.00,0,,202
2010-11-8,71,53,35,39,35,31,89,58,27,30.00,29.90,29.81,10,10,4,18,5,24,0.00,0,,171
2010-11-9,72,57,41,47,42,36,89,65,41,29.94,29.89,29.84,10,10,5,14,5,21,0.00,0,,126
2010-11-10,70,56,42,50,46,40,83,65,47,30.07,29.99,29.94,10,10,8,21,10,25,0.00,1,,137
2010-11-11,61,52,43,50,39,36,89,74,59,30.41,30.32,30.11,10,10,9,15,6,20,0.01,3,Rain,326
2010-11-12,61,54,46,51,46,41,86,75,64,30.37,30.24,30.05,10,9,5,18,10,23,0.34,6,Rain,69
2010-11-13,54,47,39,48,39,31,93,82,70,30.00,29.89,29.83,10,8,3,29,18,37,0.22,8,Rain,208
2010-11-14,47,41,34,35,32,28,82,71,60,29.97,29.90,29.86,10,10,10,24,14,30,0.00,5,Rain,255
2010-11-15,54,42,30,42,36,28,92,73,54,29.86,29.82,29.79,10,10,7,17,5,23,0.01,3,Rain,170
2010-11-16,55,44,32,40,36,30,89,72,54,29.79,29.71,29.62,10,10,5,14,3,18,0.00,1,,284
2010-11-17,43,39,35,37,35,32,92,81,70,30.26,30.06,29.81,10,7,2,20,8,23,0.00,7,,293
2010-11-18,39,35,30,29,27,25,89,74,59,30.40,30.32,30.23,10,9,6,13,6,16,0.00,6,,294
2010-11-19,50,40,30,37,32,25,96,76,56,30.22,30.08,29.98,10,9,7,23,8,31,0.00,1,,220
2010-11-20,46,39,31,36,31,28,92,77,62,30.27,30.17,30.07,10,9,6,23,10,28,0.00,2,,74
2010-11-21,59,50,41,52,45,36,93,84,75,30.05,29.87,29.74,10,6,2,18,9,25,0.01,6,Rain,161
2010-11-22,71,51,30,60,45,23,93,81,68,30.01,29.75,29.57,10,7,1,32,13,40,0.27,7,Rain-Thunderstorm,237
2010-11-23,33,28,23,23,19,16,81,66,51,30.32,30.21,30.01,10,10,10,20,9,24,0.00,2,,294
2010-11-24,39,31,22,38,30,18,92,79,66,30.28,29.88,29.68,10,7,2,30,13,38,0.12,7,Rain-Thunderstorm,114
2010-11-25,39,31,22,38,24,9,92,71,50,29.99,29.83,29.67,10,8,2,24,15,30,0.00,4,,296
2010-11-26,36,28,19,26,17,8,70,60,49,30.00,29.95,29.88,10,10,10,24,14,31,0.00,4,,266
2010-11-27,37,31,24,22,18,13,81,58,35,30.17,30.12,30.00,10,10,8,22,8,30,0.00,1,,295
2010-11-28,50,38,26,34,29,21,85,68,50,30.14,30.04,29.93,10,10,8,21,12,29,0.00,0,,145
2010-11-29,50,43,36,46,39,30,93,80,66,29.93,29.73,29.56,10,9,2,30,14,37,0.28,6,Rain,164
2010-11-30,49,37,24,39,23,16,92,80,68,29.93,29.79,29.58,10,8,2,29,19,35,0.01,8,Snow,271